When you browse on this site, cookies collect data to enhance your experience and personalize the content and advertising you see.
Visit our Privacy Policy to learn more. By continuing to use the site, you agree to this use of cookies and data.
  • En España
  • Lista de países
  • Para 7 días
  • Temperatura del agua
  • Mapa Satelital
  • El tiempo en el mapa
  • Informadores
  • user-avatar
    Iniciar sesión

    Tiempo cada hora Schokino

    Hoy, 18 Junio, Martes

    Tiempo Temperatura Precipitaciones Viento Presión Humedad
    00:00 +17°C° 0 mm 2 mps 738 mmHg 83%
    01:00 +17°C° 0 mm 2 mps 738 mmHg 86%
    02:00 +16°C° 0 mm 2 mps 738 mmHg 88%
    03:00 +16°C° 0 mm 2 mps 738 mmHg 88%
    04:00 +17°C° 0.2 mm 2 mps 738 mmHg 88%
    05:00 +17°C° 0.2 mm 2 mps 738 mmHg 89%
    06:00 +17°C° 0.2 mm 2 mps 738 mmHg 90%
    07:00 +18°C° 1.1 mm 2 mps 738 mmHg 88%
    08:00 +20°C° 1.1 mm 2 mps 738 mmHg 85%
    09:00 +21°C° 1.1 mm 2 mps 738 mmHg 83%
    10:00 +23°C° 1 mm 2 mps 738 mmHg 77%
    11:00 +24°C° 1 mm 2 mps 738 mmHg 71%
    12:00 +26°C° 1 mm 2 mps 737 mmHg 65%
    13:00 +26°C° 0.3 mm 3 mps 737 mmHg 66%
    14:00 +26°C° 0.3 mm 3 mps 737 mmHg 66%
    15:00 +26°C° 0.3 mm 4 mps 737 mmHg 67%
    16:00 +25°C° 0.5 mm 3 mps 737 mmHg 70%
    17:00 +25°C° 0.5 mm 3 mps 737 mmHg 73%
    18:00 +25°C° 0.5 mm 3 mps 737 mmHg 76%
    19:00 +22°C° 0.2 mm 3 mps 737 mmHg 78%
    20:00 +21°C° 0.2 mm 2 mps 737 mmHg 81%
    21:00 +19°C° 0.2 mm 2 mps 737 mmHg 84%
    22:00 +18°C° 0 mm 2 mps 738 mmHg 85%
    23:00 +17°C° 0 mm 2 mps 738 mmHg 86%

    Mañana, 19 Junio, Miércoles

    Tiempo Temperatura Precipitaciones Viento Presión Humedad
    00:00 +17°C° 0 mm 3 mps 738 mmHg 87%
    01:00 +16°C° 0 mm 3 mps 738 mmHg 88%
    02:00 +16°C° 0 mm 3 mps 738 mmHg 89%
    03:00 +14°C° 0 mm 3 mps 739 mmHg 90%
    04:00 +14°C° 0 mm 3 mps 739 mmHg 89%
    05:00 +16°C° 0 mm 3 mps 739 mmHg 87%
    06:00 +16°C° 0 mm 2 mps 739 mmHg 86%
    07:00 +17°C° 0 mm 3 mps 740 mmHg 81%
    08:00 +19°C° 0 mm 3 mps 740 mmHg 76%
    09:00 +20°C° 0 mm 3 mps 740 mmHg 71%
    10:00 +22°C° 0 mm 3 mps 740 mmHg 66%
    11:00 +24°C° 0 mm 3 mps 740 mmHg 60%
    12:00 +25°C° 0 mm 3 mps 740 mmHg 55%
    13:00 +25°C° 0 mm 3 mps 740 mmHg 54%
    14:00 +25°C° 0 mm 3 mps 740 mmHg 54%
    15:00 +26°C° 0 mm 3 mps 740 mmHg 53%
    16:00 +26°C° 0 mm 2 mps 740 mmHg 56%
    17:00 +26°C° 0 mm 2 mps 740 mmHg 60%
    18:00 +25°C° 0 mm 1 mps 740 mmHg 63%
    19:00 +24°C° 0 mm 1 mps 740 mmHg 68%
    20:00 +22°C° 0 mm 1 mps 740 mmHg 72%
    21:00 +20°C° 0 mm 1 mps 740 mmHg 77%
    22:00 +19°C° 0 mm 1 mps 740 mmHg 78%
    23:00 +18°C° 0 mm 1 mps 740 mmHg 80%

    Pasado mañana, 20 Junio, Jueves

    Tiempo Temperatura Precipitaciones Viento Presión Humedad
    00:00 +18°C° 0 mm 1 mps 741 mmHg 81%
    01:00 +16°C° 0 mm 1 mps 741 mmHg 82%
    02:00 +16°C° 0 mm 1 mps 741 mmHg 82%
    03:00 +16°C° 0 mm 1 mps 741 mmHg 83%
    04:00 +16°C° 0 mm 1 mps 741 mmHg 82%
    05:00 +18°C° 0 mm 1 mps 741 mmHg 82%
    06:00 +19°C° 0 mm 1 mps 741 mmHg 81%
    07:00 +20°C° 0 mm 1 mps 741 mmHg 76%
    08:00 +22°C° 0 mm 1 mps 741 mmHg 71%
    09:00 +24°C° 0 mm 1 mps 742 mmHg 67%
    10:00 +23°C° 0 mm 0 mps 742 mmHg 62%
    11:00 +24°C° 0 mm 0 mps 742 mmHg 57%
    12:00 +25°C° 0 mm 0 mps 742 mmHg 52%
    13:00 +25°C° 0 mm 0 mps 742 mmHg 51%
    14:00 +25°C° 0 mm 0 mps 741 mmHg 49%
    15:00 +26°C° 0 mm 0 mps 741 mmHg 48%
    16:00 +25°C° 0 mm 0 mps 741 mmHg 52%
    17:00 +25°C° 0 mm 0 mps 741 mmHg 55%
    18:00 +25°C° 0 mm 0 mps 741 mmHg 58%
    19:00 +23°C° 0 mm 0 mps 741 mmHg 61%
    20:00 +23°C° 0 mm 1 mps 741 mmHg 64%
    21:00 +21°C° 0 mm 1 mps 741 mmHg 67%
    22:00 +20°C° 0 mm 1 mps 741 mmHg 70%
    23:00 +20°C° 0 mm 1 mps 741 mmHg 73%

    21 Junio, Viernes

    Tiempo Temperatura Precipitaciones Viento Presión Humedad
    00:00 +19°C° 0 mm 1 mps 741 mmHg 76%
    01:00 +19°C° 0 mm 1 mps 741 mmHg 79%
    02:00 +18°C° 0 mm 1 mps 741 mmHg 81%
    03:00 +18°C° 0 mm 1 mps 742 mmHg 83%
    04:00 +19°C° 0 mm 1 mps 742 mmHg 83%
    05:00 +19°C° 0 mm 1 mps 742 mmHg 82%
    06:00 +20°C° 0 mm 1 mps 742 mmHg 81%
    07:00 +21°C° 0 mm 1 mps 742 mmHg 77%
    08:00 +23°C° 0 mm 1 mps 742 mmHg 72%
    09:00 +24°C° 0 mm 2 mps 742 mmHg 67%
    10:00 +25°C° 0 mm 2 mps 742 mmHg 63%
    11:00 +26°C° 0 mm 2 mps 742 mmHg 59%
    12:00 +27°C° 0 mm 2 mps 742 mmHg 55%
    13:00 +27°C° 0 mm 2 mps 742 mmHg 55%
    14:00 +27°C° 0 mm 2 mps 742 mmHg 55%
    15:00 +27°C° 0 mm 2 mps 742 mmHg 54%
    16:00 +27°C° 0 mm 2 mps 741 mmHg 59%
    17:00 +27°C° 0 mm 2 mps 741 mmHg 63%
    18:00 +27°C° 0 mm 2 mps 741 mmHg 67%
    19:00 +25°C° 0 mm 2 mps 741 mmHg 71%
    20:00 +23°C° 0 mm 2 mps 741 mmHg 75%
    21:00 +21°C° 0 mm 2 mps 741 mmHg 78%
    22:00 +20°C° 0 mm 2 mps 741 mmHg 79%
    23:00 +19°C° 0 mm 2 mps 741 mmHg 80%

    22 Junio, Sábado

    Tiempo Temperatura Precipitaciones Viento Presión Humedad
    00:00 +19°C° 0 mm 2 mps 741 mmHg 80%
    01:00 +18°C° 0 mm 2 mps 741 mmHg 82%
    02:00 +18°C° 0 mm 2 mps 741 mmHg 84%
    03:00 +18°C° 0 mm 2 mps 741 mmHg 85%
    04:00 +18°C° 0 mm 2 mps 741 mmHg 84%
    05:00 +18°C° 0 mm 2 mps 741 mmHg 83%
    06:00 +19°C° 0 mm 2 mps 742 mmHg 82%
    07:00 +20°C° 0 mm 3 mps 742 mmHg 79%
    08:00 +22°C° 0 mm 3 mps 742 mmHg 76%
    09:00 +24°C° 0 mm 3 mps 742 mmHg 73%
    10:00 +26°C° 0 mm 4 mps 742 mmHg 69%
    11:00 +27°C° 0 mm 4 mps 742 mmHg 65%
    12:00 +28°C° 0 mm 4 mps 742 mmHg 61%
    13:00 +28°C° 0 mm 4 mps 741 mmHg 60%
    14:00 +28°C° 0 mm 5 mps 741 mmHg 60%
    15:00 +28°C° 0 mm 5 mps 741 mmHg 59%
    16:00 +28°C° 0 mm 4 mps 741 mmHg 63%
    17:00 +28°C° 0 mm 4 mps 741 mmHg 68%
    18:00 +27°C° 0 mm 3 mps 740 mmHg 72%
    19:00 +26°C° 0 mm 3 mps 740 mmHg 76%
    20:00 +24°C° 0 mm 3 mps 741 mmHg 80%
    21:00 +22°C° 0 mm 3 mps 741 mmHg 84%
    22:00 +21°C° 0 mm 3 mps 741 mmHg 85%
    23:00 +21°C° 0 mm 3 mps 741 mmHg 87%

    23 Junio, Domingo

    Tiempo Temperatura Precipitaciones Viento Presión Humedad
    00:00 +20°C° 0 mm 3 mps 741 mmHg 88%
    01:00 +20°C° 0 mm 3 mps 741 mmHg 89%
    02:00 +19°C° 0 mm 3 mps 741 mmHg 91%
    03:00 +19°C° 0 mm 3 mps 741 mmHg 92%
    04:00 +19°C° 0 mm 2 mps 741 mmHg 91%
    05:00 +20°C° 0 mm 2 mps 741 mmHg 90%
    06:00 +20°C° 0 mm 2 mps 741 mmHg 89%
    07:00 +23°C° 0 mm 2 mps 741 mmHg 83%
    08:00 +25°C° 0 mm 2 mps 741 mmHg 77%
    09:00 +27°C° 0 mm 3 mps 741 mmHg 71%
    10:00 +27°C° 0.1 mm 3 mps 741 mmHg 67%
    11:00 +28°C° 0.1 mm 3 mps 741 mmHg 63%
    12:00 +29°C° 0.1 mm 3 mps 741 mmHg 59%
    13:00 +29°C° 0.1 mm 4 mps 741 mmHg 58%
    14:00 +29°C° 0.1 mm 4 mps 741 mmHg 57%
    15:00 +30°C° 0.1 mm 4 mps 741 mmHg 56%
    16:00 +29°C° 0 mm 3 mps 741 mmHg 61%
    17:00 +29°C° 0 mm 3 mps 741 mmHg 65%
    18:00 +29°C° 0 mm 2 mps 741 mmHg 70%
    19:00 +27°C° 0 mm 2 mps 741 mmHg 72%
    20:00 +25°C° 0 mm 2 mps 741 mmHg 75%
    21:00 +24°C° 0 mm 2 mps 741 mmHg 78%
    22:00 +23°C° 0 mm 2 mps 741 mmHg 79%
    23:00 +21°C° 0 mm 2 mps 740 mmHg 80%
    Mostrar más